Location: B�rgermoos
(47.6500°N, 9.0667°E)
Time: 06:04:41
(UTC+00:00)

Cosmos 2266 Rocket - Pass Details

Date: 18 September 2020
Orbit: 934 x 1008 km, 82.9° (Epoch: 27 October)

Event Time Altitude Azimuth Distance (km) Brightness Sun altitude
Rises 20:58:25 0° 351° (N) 3,616 7.7 -32.3°
Reaches altitude 10° 21:00:55 10° 352° (N) 2,662 6.9 -32.6°
Enters shadow 21:05:32 55° 358° (N) 1,120 4.4 -33.1°
